Location: Unspecified
(47.3000°N, 0.0000°E)
Time: 05:39:30
(UTC+00:00)

Explorer 7 - Visible Passes

Search period start: 04 April 2026 00:00
Search period end: 14 April 2026 00:00
Orbit: 429 x 539 km, 50.2° (Epoch: 29 March)

Date Brightness Start Highest point End Pass type
(mag) Time Alt. Az. Time Alt. Az. Time Alt. Az.
4 Apr 9.0 20:17:14 10° S 20:17:34 12° S 20:17:34 12° S visible
5 Apr 8.1 19:50:16 10° S 19:53:13 20° SE 19:53:13 20° SE visible
5 Apr 9.3 21:27:13 10° WSW 21:27:35 12° WSW 21:27:35 12° WSW visible
6 Apr 8.2 19:23:17 10° S 19:26:10 19° SE 19:28:30 12° E visible
6 Apr 7.5 21:00:06 10° WSW 21:02:50 41° SW 21:02:50 41° SW visible
7 Apr 6.5 20:32:57 10° WSW 20:36:58 71° SSE 20:37:45 53° E visible
7 Apr 9.5 22:11:33 10° W 22:12:04 13° W 22:12:04 13° W visible
8 Apr 6.6 20:05:47 10° WSW 20:09:48 68° SSE 20:12:21 21° ENE visible
8 Apr 8.4 21:44:21 10° W 21:46:39 31° WNW 21:46:39 31° WNW visible
9 Apr 6.7 19:38:35 10° SW 19:42:37 65° SSE 19:46:33 10° ENE visible
9 Apr 7.2 21:17:07 10° W 21:20:59 57° NNW 21:20:59 57° NNW visible
10 Apr 6.8 19:11:23 10° SW 19:15:23 62° SSE 19:19:20 10° ENE visible
10 Apr 7.1 20:49:51 10° W 20:53:51 58° N 20:55:08 37° NE visible
10 Apr 9.4 22:28:35 10° WNW 22:29:24 15° WNW 22:29:24 15° WNW visible
11 Apr 7.2 20:22:34 10° W 20:26:34 60° N 20:29:08 20° ENE visible
11 Apr 8.5 22:01:18 10° WNW 22:03:23 28° WNW 22:03:23 28° WNW visible
12 Apr 7.2 19:55:15 10° W 19:59:16 61° N 20:03:01 11° ENE visible
12 Apr 7.4 21:33:59 10° WNW 21:37:17 51° NW 21:37:17 51° NW visible
13 Apr 7.2 19:27:54 10° W 19:31:57 62° N 19:35:54 10° ENE visible
13 Apr 7.0 21:06:39 10° WNW 21:10:38 60° N 21:11:05 55° NE visible
13 Apr 9.7 22:45:09 10° WNW 22:45:20 11° WNW 22:45:20 11° WNW visible
